Cloud_Cover
0 0 0 5 3 5 75 43 99 5 26 26 94 100 100 100 100 100 100 100 100 100 100 100 100 100 100 100 69 60 83 5 5 5 5 2 4 0 3 13 73 32 36 5 80 51 100 100 94
0 0 0 4 79 82 68 43 77 41 26 83 13 100 100 100 100 100 100 100 100 100 100 95 100 100 100 100 100 80 97 5 5 5 5 5 5 5 5 26 50 100 100 100 100 100 100 100 100
0 0 0 0 99 100 90 10 5 5 5 5 5 100 100 100 100 100 100 100 100 100 100 100 100 100 100 100 33 100 96 39 5 5 5 5 5 5 5 6 23 52 100 100 100 100 98 94 100
0 0 0 3 100 100 8 24 0 0 5 29 46 46 100 100 100 100 100 100 100 100 100 100 100 92 100 100 100 100 100 36 5 44 86 5 5 5 5 5 5 5 49 99 100 100 97 100 100
0 0 0 3 100 93 12 14 0 1 0 0 4 99 100 93 99 63 96 100 100 100 82 100 99 91 98 88 100 100 100 100 92 68 92 24 8 6 5 5 5 4 0 5 3 11 6 7 65
0 0 0 0 47 8 3 5 5 4 0 0 0 0 29 76 8 6 46 100 100 100 100 100 100 93 93 100 100 98 94 96 58 77 64 12 1 2 4 9 5 4 0 0 0 0 4 5 2
0 0 0 0 0 0 0 1 1 0 0 0 0 0 0 3 18 65 99 100 100 100 98 100 100 100 100 100 100 100 100 95 99 27 90 71 5 5 5 1 1 0 0 0 3 3 0 5 9
0 0 0 0 0 0 0 0 0 0 0 0 0 0 0 0 4 53 54 100 100 100 100 100 100 100 100 100 97 99 88 5 22 80 100 100 9 5 5 7 5 4 0 0 0 0 2 2 5
0 0 0 0 0 0 0 0 0 0 0 0 0 0 0 0 0 2 5 86 100 100 100 100 100 100 100 100 98 75 29 70 26 52 84 79 5 6 4 38 44 0 0 0 0 0 0 0 5
0 0 0 0 0 0 0 0 0 0 0 0 0 0 0 0 0 0 0 5 100 100 100 100 100 100 89 86 100 100 100 87 17 5 32 14 52 100 67 100 2 0 0 0 0 0 1 0 13
0 0 0 0 0 0 0 0 0 0 0 0 0 0 0 0 0 0 0 0 6 100 100 100 100 100 100 96 100 100 100 97 38 20 13 70 100 99 74 39 95 91 0 0 0 20 37 32 32
0 0 0 0 0 0 0 0 0 0 0 0 0 0 0 0 0 0 0 0 0 54 100 100 100 100 51 100 100 93 100 100 100 100 100 100 70 100 16 13 5 19 12 4 5 30 55 42 23
0 0 0 0 0 0 0 0 0 0 0 0 0 0 0 0 0 0 0 0 0 12 100 100 100 100 84 100 100 97 96 95 89 100 100 100 100 100 81 19 72 99 81 100 28 11 23 60 28
0 0 0 0 0 0 0 0 0 0 0 0 0 0 0 0 0 0 0 0 0 0 53 100 100 100 100 100 100 100 100 100 99 97 100 100 90 99 70 43 93 91 100 84 47 60 100 97 59
0 0 0 0 0 0 0 0 0 0 0 0 0 0 0 0 0 0 0 0 0 0 0 100 100 100 100 100 85 9 30 86 88 10 10 100 99 96 35 66 25 12 92 100 6 17 9 10 86
0 0 0 0 0 0 0 0 0 0 0 0 0 0 0 0 0 0 0 0 0 0 0 0 0 64 100 100 96 71 68 8 10 17 8 2 1 0 0 3 6 1 3 5 10 2 16 27 83
0 0 0 0 0 0 0 0 0 0 0 0 0 0 0 0 0 0 0 0 0 0 0 0 0 0 0 0 0 7 0 16 0 2 2 0 0 0 0 0 0 0 4 2 3 3 0 63 55
0 0 0 0 0 0 0 0 0 0 0 0 0 0 0 0 0 0 0 0 0 0 0 0 0 0 0 0 3 19 30 9 7 9 0 0 0 0 0 0 0 0 0 0 4 0 0 0 21
0 0 0 0 0 0 0 0 0 0 0 0 0 0 0 0 0 0 0 0 0 0 0 0 0 0 0 0 11 22 12 16 16 13 0 0 0 0 0 0 0 0 0 0 0 0 0 0 0
0 0 0 0 0 0 0 0 0 0 0 0 0 0 0 0 0 0 0 0 0 0 0 0 0 0 0 0 0 0 0 3 0 0 0 0 0 0 0 0 0 0 0 0 0 0 2 2 1
0 0 0 0 0 0 0 0 0 0 0 0 0 0 0 0 0 0 0 0 0 0 0 0 0 0 0 0 0 12 20 14 0 0 0 0 0 0 0 0 0 2 0 0 0 0 0 0 0
0 0 0 0 0 0 0 0 0 0 1 0 0 0 0 0 0 0 0 0 0 0 0 0 0 0 0 0 0 0 0 18 9 0 0 0 0 0 0 0 0 0 1 0 0 0 0 0 0
0 0 0 0 0 0 0 0 0 0 1 2 0 0 0 0 0 0 0 0 0 0 0 0 0 0 0 0 0 0 0 0 0 0 0 0 0 0 0 0 0 0 0 0 0 0 0 0 0
4 2 3 0 0 0 0 0 0 0 0 0 0 0 0 0 0 0 0 0 0 0 0 0 0 0 0 0 0 0 0 0 0 0 0 0 0 0 0 0 0 0 1 0 0 0 0 4 1
5 5 1 0 1 0 0 0 0 0 0 0 0 0 0 0 0 0 0 0 0 0 2 4 2 5 5 0 0 0 0 0 0 0 0 0 0 0 0 0 0 0 0 0 0 0 0 0 0
72 36 7 5 2 0 0 0 0 0 0 0 0 0 0 0 0 0 1 2 0 0 0 2 5 5 5 0 0 0 0 0 0 0 0 0 0 0 0 0 0 0 0 0 0 0 0 0 0
100 65 2 5 5 4 0 0 0 0 0 0 0 0 0 0 0 0 5 5 5 5 5 4 1 5 5 4 0 1 0 0 0 0 0 0 0 0 0 0 0 0 0 0 0 0 0 0 0
100 98 4 4 24 10 5 35 5 5 4 5 5 4 0 0 0 0 0 0 0 1 3 3 3 4 5 5 4 2 0 0 0 0 0 0 0 0 0 0 0 0 1 0 0 0 2 3 0
25 35 27 28 6 5 0 0 0 4 5 5 4 3 0 0 0 0 0 0 1 5 4 5 5 3 5 5 5 3 0 4 10 2 0 0 0 0 5 50 74 55 70 86 100 78 16 5 0
5 5 5 10 7 2 1 1 0 0 0 0 0 0 0 0 0 0 0 1 4 5 100 91 5 5 5 5 5 31 76 5 100 100 98 100 96 8 12 100 100 100 100 100 100 100 41 5 0